AO-07 1 07530U 74089B 22286.70933082 -.00000046 00000-0 -26773-5 0 9997 2 07530 101.9197 267.0092 0012108 173.8930 1.8127 12.53657633192523 UO-11 1 14781U 84021B 22286.53512043 .00001431 00000-0 17845-3 0 9996 2 14781 97.6302 268.6698 0006900 299.3924 60.6601 14.83877843 57552 AO-16 1 20439U 90005D 22286.72079300 .00000206 00000-0 92344-4 0 9994 2 20439 98.8590 265.9994 0010299 200.2528 334.8498 14.32944041709853 LO-19 1 20442U 90005G 22286.65466174 .00000212 00000-0 93858-4 0 9997 2 20442 98.8095 253.4046 0011693 176.5838 183.5427 14.33097311710094 HUBBLE 1 20580U 90037B 22286.53526833 .00003714 00000-0 20578-3 0 9999 2 20580 28.4692 106.1328 0002219 228.7438 168.8797 15.11044718584091 MET-2/21 1 22782U 93055A 22286.51494499 .00000048 00000-0 29638-4 0 9992 2 22782 82.5449 280.5285 0022717 19.6593 131.1826 13.83861984470337 AO-27 1 22825U 93061C 22286.81788568 .00000111 00000-0 60538-4 0 9998 2 22825 98.8771 320.3035 0009440 69.8345 290.3851 14.30199305515340 IO-26 1 22826U 93061D 22286.81237027 .00000130 00000-0 67591-4 0 9995 2 22826 98.8716 320.1702 0009848 57.4117 302.8014 14.30548656515584 FO-29 1 24278U 96046B 22286.29764434 -.00000012 00000-0 25817-4 0 9998 2 24278 98.5152 293.7651 0349928 337.6777 20.9444 13.53122298291543 NOAA-15 1 25338U 98030A 22286.77671211 .00000163 00000-0 86155-4 0 9992 2 25338 98.6355 314.7193 0009533 317.0545 42.9890 14.26181962270137 GO-32 1 25397U 98043D 22286.63273716 .00000124 00000-0 73832-4 0 9999 2 25397 98.8311 237.4783 0002232 108.5531 251.5890 14.23778086260468 ISS 1 25544U 98067A 22286.96885661 .00014431 00000-0 26019-3 0 9993 2 25544 51.6411 108.1076 0003461 301.0291 217.5930 15.50016527363600 NO-44 1 26931U 01043C 22286.52235868 .00000183 00000-0 10157-3 0 9997 2 26931 67.0501 113.6350 0005488 259.5749 100.4734 14.30745121 98292 SO-50 1 27607U 02058C 22286.46834340 .00001488 00000-0 22286-3 0 9993 2 27607 64.5550 300.7142 0081666 271.9818 87.1934 14.76315971 65792 CO-55 1 27844U 03031E 22286.45621035 .00000389 00000-0 19359-3 0 9998 2 27844 98.6810 292.3760 0010843 117.4800 242.7481 14.22513389 652 CO-57 1 27848U 03031J 22286.73765860 .00000312 00000-0 16087-3 0 9999 2 27848 98.6854 293.1467 0010576 129.9058 230.3051 14.22062193 527 RS-22 1 27939U 03042A 22286.70249844 .00001728 00000-0 31325-3 0 9992 2 27939 98.2097 67.5163 0012626 189.7083 170.3879 14.67533044 18380 NOAA-18 1 28654U 05018A 22286.76317481 .00000228 00000-0 14694-3 0 9995 2 28654 98.9386 357.0477 0014101 1.4171 358.7038 14.12789545896771 CO-58 1 28895U 05043F 22286.31402052 .00001906 00000-0 36742-3 0 9992 2 28895 98.1232 55.9941 0017581 128.0164 232.2629 14.64559669904662 Falconsat-3 1 30776U 07006E 22286.18804192 .00115457 00000-0 11483-2 0 9991 2 30776 35.4275 204.0374 0004105 261.9352 98.0918 15.64380142867953 CO-65 1 32785U 08021C 22286.44107875 .00003175 00000-0 33421-3 0 9994 2 32785 97.6725 253.6637 0012017 195.3406 164.7449 14.90026183784057 AAUSAT2 1 32788U 08021F 22286.47685812 .00007595 00000-0 63895-3 0 9990 2 32788 97.5446 267.7480 0012256 87.0726 273.1899 14.98470721786200 DO-64 1 32789U 08021G 22286.31474540 .00022145 00000-0 11327-2 0 9998 2 32789 97.3321 308.5097 0007471 272.2024 87.8353 15.16628545789771 CO-66 1 32791U 08021J 22286.60606792 .00005414 00000-0 52107-3 0 9991 2 32791 97.6260 259.1975 0013592 148.7761 211.4269 14.93308064784907 RS-30 1 32953U 08025A 22286.52700858 .00000024 00000-0 10000-3 0 9992 2 32953 82.4975 110.5155 0019574 4.4105 355.7149 12.43113887653003 PRISM 1 33493U 09002B 22286.46303381 .00008054 00000-0 63550-3 0 9990 2 33493 98.2471 279.8880 0015100 145.7748 214.4450 15.00931449746676 NOAA-19 1 33591U 09005A 22286.77791126 .00000181 00000-0 12266-3 0 9995 2 33591 99.1370 323.3432 0013436 212.4583 147.5763 14.12621853705158 SRMSAT 1 37841U 11058D 22286.30570395 .00000503 00000-0 13108-3 0 9994 2 37841 19.9717 262.5353 0011850 197.9609 191.2533 14.10781588567905 HRBE 1 37855U 11061F 22286.45597001 .00014640 00000-0 60620-3 0 9990 2 37855 101.7209 108.3108 0146647 68.1276 293.5462 15.14796849599085 RS-40 1 38735U 12041C 22286.29118169 .00000007 00000-0 -24755-4 0 9996 2 38735 82.4802 192.0287 0017721 111.1735 249.1244 12.42587309463154 ZACUBE-1 1 39417U 13066B 22286.61739648 .00003863 00000-0 47048-3 0 9990 2 39417 97.6517 252.8883 0057827 18.8584 341.4754 14.82777207480634 Delfi-N3xt 1 39428U 13066N 22286.40100000 .00004206 00000-0 64537-3 0 9997 2 39428 97.8177 215.7354 0114506 260.6299 98.1947 14.69775800475859 GOMX-1 1 39430U 13066Q 22286.58315662 .00003351 00000-0 59875-3 0 9990 2 39430 97.7984 186.9857 0149737 32.8448 328.1950 14.60465278473532 LO-74 1 39440U 13066AA 22286.59141618 .00002756 00000-0 37465-3 0 9999 2 39440 97.7397 239.2772 0079788 107.7913 253.2024 14.77369651478920 AO-73 1 39444U 13066AE 22286.68005225 .00004871 00000-0 57567-3 0 9991 2 39444 97.6393 255.3734 0056235 6.3453 353.8461 14.83958772479648 SPROUT 1 39770U 14029E 22286.32164331 .00018450 00000-0 17992-2 0 9993 2 39770 97.9524 44.1607 0009121 59.2935 300.9035 14.92470744455233 DTUSAT-2 1 40030U 14033W 22286.28991122 .00004631 00000-0 47999-3 0 9997 2 40030 97.9421 219.5815 0012395 33.3096 326.8899 14.90451997451190 EO-80 1 40032U 14033Y 22286.53282024 .00003761 00000-0 39122-3 0 9993 2 40032 97.9426 219.8409 0012376 33.2029 326.9963 14.90431942451206 HODOYOSHI-1 1 40299U 14070B 22286.86002891 .00010704 00000-0 39206-3 0 9995 2 40299 97.2321 351.5029 0013490 78.9527 49.9350 15.28103432441132 FIREBIRD FU3 1 40377U 15003B 22286.43810620 .00037688 00000-0 10037-2 0 9999 2 40377 99.0802 177.8795 0091321 345.6915 14.1738 15.33888026426475 FIREBIRD FU4 1 40378U 15003C 22286.45571543 .00035709 00000-0 94837-3 0 9993 2 40378 99.0808 178.1411 0091187 345.1855 14.6713 15.33995407426480 GRIFEX 1 40379U 15003D 22286.22687438 .00020968 00000-0 69238-3 0 9998 2 40379 99.0907 162.3866 0111196 32.2597 328.5374 15.25592252425560 XW-2A 1 40903U 15049E 22286.87677920 .00049714 00000-0 63394-3 0 9994 2 40903 97.1645 345.8798 0008801 50.8312 65.1087 15.59113699397678 XW-2C 1 40906U 15049H 22286.47437818 -.00000059 00000-0 00000-0 0 9995 2 40906 97.4677 289.0925 0119127 129.6449 0.8580 14.90965806390845 XW-2D 1 40907U 15049J 22286.77816058 .00013285 00000-0 59805-3 0 9990 2 40907 97.4955 289.4484 0011182 306.7865 227.6116 15.21154049390940 LILACSAT-2 1 40908U 15049K 22286.82986706 .00006405 00000-0 33150-3 0 9996 2 40908 97.5218 286.3209 0014259 332.9444 110.9610 15.16491466390424 XW-2E 1 40909U 15049L 22286.88159609 .00020452 00000-0 80162-3 0 9990 2 40909 97.4656 294.3769 0009249 279.5655 165.2770 15.25762743391456 XW-2F 1 40910U 15049M 22286.85074459 .00020283 00000-0 80782-3 0 9998 2 40910 97.4735 293.5100 0010325 280.4634 163.5252 15.25218719391210 XW-2B 1 40911U 15049N 22286.79486400 .00013114 00000-0 59264-3 0 9991 2 40911 97.4938 290.0265 0010889 308.7451 129.2265 15.21025714390833 DCBB 1 40912U 15049P 22286.86582081 .00023004 00000-0 82548-3 0 9992 2 40912 97.4349 297.8755 0010309 236.8784 207.0922 15.28648794391827 TW-1A 1 40928U 15051D 22286.79822167 .00153340 00000-0 11127-2 0 9997 2 40928 97.0248 309.1985 0002677 325.2349 145.8935 15.72937360396747 IO-86 1 40931U 15052B 22286.49730258 .00001444 00000-0 11125-3 0 9994 2 40931 5.9958 46.9622 0013734 38.5723 321.5399 14.76887187380820 AO-85 1 40967U 15058D 22285.47165672 .00006825 00000-0 73858-3 0 5083 2 40967 64.7742 75.7964 0179461 161.9490 198.8149 14.77901749 77951 ATHENOXAT-1 1 41168U 15077C 22286.69908120 .00039174 00000-0 15105-2 0 9993 2 41168 14.9830 292.2203 0009361 108.3675 37.4217 15.24324525378359 ChubuSat-2 1 41338U 16012B 22286.59271055 .00003631 00000-0 26500-3 0 9992 2 41338 31.0045 351.4644 0013137 245.2248 114.7021 15.01819635365259 ChubuSat-3 1 41339U 16012C 22286.58051899 .00004434 00000-0 32475-3 0 9994 2 41339 31.0119 348.4519 0012923 253.8704 106.0509 15.01865527365259 Horyu-4 1 41340U 16012D 22286.40289169 .00006303 00000-0 43767-3 0 9993 2 41340 31.0051 325.5024 0012765 294.1658 65.7644 15.04069437365499 e-st@r-II 1 41459U 16025D 22286.74211673 .00028617 00000-0 11631-2 0 9996 2 41459 98.1945 100.9501 0137582 227.0163 131.9383 15.16161573355405 AAUSAT4 1 41460U 16025E 22286.48057008 .00051194 00000-0 17485-2 0 9998 2 41460 98.1822 108.0582 0114309 200.0880 214.3491 15.24017620355888 LO-87 1 41557U 16033B 22286.89363094 .00028795 00000-0 77472-3 0 9998 2 41557 97.3902 25.0192 0009409 318.4219 180.0805 15.37791494355569 NuSat2 1 41558U 16033C 22286.90084711 .00028576 00000-0 72326-3 0 9997 2 41558 97.4129 31.4043 0008530 304.5772 164.2208 15.39680537355852 Lapan A3 1 41603U 16040E 22286.88459943 .00002959 00000-0 13608-3 0 9991 2 41603 97.1959 318.7083 0014887 102.8884 69.7437 15.20994094350035 Pratham 1 41783U 16059A 22286.37407452 .00000748 00000-0 15208-3 0 9994 2 41783 97.9020 323.1438 0033888 159.2217 201.0372 14.63458746322878 TY-1 1 41844U 16066D 22286.81370042 .00026163 00000-0 80849-3 0 9995 2 41844 97.3869 298.4927 0010454 219.0312 315.2613 15.33450621329722 CAS-2T 1 41847U 16066G 22286.43565740 .00001638 00000-0 25547-3 0 9991 2 41847 98.5381 350.9225 0362501 216.7504 140.8329 14.38785463311313 EO-88 1 42017U 17008BX 22286.45516290 .00032133 00000-0 83995-3 0 9991 2 42017 97.2555 351.0580 0004817 167.0410 193.0960 15.38690541315199 CAS-4B 1 42759U 17034B 22286.81404662 .00008660 00000-0 49623-3 0 9990 2 42759 43.0180 39.9283 0010979 313.9182 183.7240 15.12793089294276 CAS-4A 1 42761U 17034D 22286.77564478 .00009272 00000-0 52899-3 0 9999 2 42761 43.0186 38.8416 0011334 315.9657 173.7917 15.12883677294279 NIUSat 1 42766U 17036B 22286.07107677 .00014385 00000-0 52222-3 0 9994 2 42766 97.1906 319.7611 0011047 267.9981 91.9994 15.28353176294751 Aalto 1 1 42775U 17036L 22286.37570770 .00012607 00000-0 47414-3 0 9997 2 42775 97.1861 319.7511 0010147 267.2543 92.7535 15.27226151294769 URSA MAIOR 1 42776U 17036M 22286.83199188 .00012514 00000-0 46039-3 0 9998 2 42776 97.1877 321.0493 0009801 263.0883 96.9242 15.27958663294871 Max Valier Sat 1 42778U 17036P 22286.34604780 .00015422 00000-0 55049-3 0 9997 2 42778 97.1928 323.4522 0008472 265.0317 94.9956 15.28916084294902 Pegasus 1 42784U 17036V 22286.36277535 .00018927 00000-0 62397-3 0 9997 2 42784 97.1867 324.5791 0007676 263.5891 96.4477 15.31465415295048 NUDATSat 1 42787U 17036Y 22286.82757199 .00045068 00000-0 11830-2 0 9991 2 42787 97.1892 330.1543 0006555 249.9106 110.1415 15.38478856295269 SUCHAI 1 1 42788U 17036Z 22286.52913243 .00023185 00000-0 70784-3 0 9993 2 42788 97.1864 326.7322 0006988 254.1019 105.9454 15.33887511295268 SKCUBE 1 42789U 17036AA 22286.07184168 .00023445 00000-0 74112-3 0 9998 2 42789 97.1862 325.5988 0007094 258.6425 101.4021 15.32775131295074 VZLUSAT 1 1 42790U 17036AB 22286.39432302 .00037836 00000-0 10050-2 0 9990 2 42790 97.1881 329.6644 0006024 241.2580 118.8061 15.38155034295349 VENTA 1 1 42791U 17036AC 22286.48644856 .00016342 00000-0 53307-3 0 9992 2 42791 97.1874 325.7699 0006855 258.1859 101.8614 15.31842009295116 Robusta 1B 1 42792U 17036AD 22286.37216850 .00023783 00000-0 73357-3 0 9994 2 42792 97.1861 326.5562 0006620 255.9748 104.0759 15.33558796295173 D-SAT 1 42794U 17036AF 22286.44878199 .00004189 00000-0 35089-3 0 9993 2 42794 97.4559 285.6901 0123243 50.5332 310.6713 14.93147468289086 TechnoSat 1 42829U 17042E 22286.52319392 .00002450 00000-0 24552-3 0 9995 2 42829 97.4064 133.7145 0013302 338.8900 21.1769 14.92147805285698 AO-91 1 43017U 17073E 22286.41055882 .00004445 00000-0 33136-3 0 9992 2 43017 97.6572 175.7419 0246261 160.9540 200.1087 14.82249445264589 PICSAT 1 43132U 18004X 22286.45925277 .00022311 00000-0 66515-3 0 9992 2 43132 97.3627 2.3637 0005931 299.9783 60.0871 15.34657784264481 AO-92 1 43137U 18004AC 22286.18250516 .00019167 00000-0 62693-3 0 9992 2 43137 97.3584 0.3796 0006065 309.9694 50.1015 15.31729768264359 TianYi 2 1 43155U 18008A 22286.92571302 .00015371 00000-0 77804-3 0 9990 2 43155 97.3398 341.5438 0017111 91.5862 83.0082 15.16968232261226 Zhou Enlai 1 43156U 18008B 22286.87926612 .00016806 00000-0 85493-3 0 9990 2 43156 97.3445 341.4131 0014534 93.9590 21.1082 15.16809951261145 TianYi 6 1 43158U 18008D 22286.40361567 .00014133 00000-0 74637-3 0 9992 2 43158 97.3402 338.6784 0014120 95.1966 275.5776 15.15533058260969 S-Net D 1 43186U 18014G 22286.25201726 .00003026 00000-0 25876-3 0 9993 2 43186 97.6456 189.6950 0009463 263.6850 96.3295 14.98336963256550 S-Net B 1 43187U 18014H 22286.38587942 .00002896 00000-0 24783-3 0 9995 2 43187 97.6451 189.7721 0009514 262.8370 97.1771 14.98334541256578 S-Net A 1 43188U 18014J 22286.65331943 .00002841 00000-0 24323-3 0 9994 2 43188 97.6455 190.1044 0009506 261.9437 98.0707 14.98335936256615 S-Net C 1 43189U 18014K 22286.32033691 .00003088 00000-0 26399-3 0 9997 2 43189 97.6450 189.6947 0009514 263.0160 96.9981 14.98330188255110 FMN 1 1 43192U 18015A 22286.45914510 .00075756 00000-0 15538-2 0 9997 2 43192 97.5483 75.3841 0009579 322.2746 110.8432 15.45731048261625 Shaonian Xing 1 43199U 18015H 22286.82348138 .00038647 00000-0 10169-2 0 9995 2 43199 97.5281 69.6522 0012141 342.4662 157.6094 15.38388032261615 SurfSat 1 43614U 18070B 22286.51119195 .00087832 00000-0 85227-3 0 9991 2 43614 93.0113 149.1150 0004704 260.2056 99.8682 15.66059068229465 CP-7 DAVE 1 43615U 18070C 22286.14116542 .00079731 00000-0 86141-3 0 9999 2 43615 93.0101 148.6609 0005301 272.1179 87.9481 15.63354878229355 CubeBel-1 1 43666U 18083E 22286.89598141 .00018895 00000-0 74981-3 0 9993 2 43666 97.4127 314.3401 0010912 278.0009 159.9141 15.25348954219527 Changshagaoxin 1 43669U 18083H 22286.87636416 .00018103 00000-0 75637-3 0 9993 2 43669 97.4089 309.9318 0007431 276.9455 188.7178 15.23652791219321 Ten-Koh 1 43677U 18084G 22286.64263907 .00002930 00000-0 29866-3 0 9993 2 43677 97.9810 57.8980 0014561 239.6978 120.2800 14.91415463215291 PO-101 1 43678U 18084H 22286.73232202 .00002114 00000-0 21224-3 0 9992 2 43678 97.9875 61.5131 0008595 253.3410 106.6883 14.92381591215493 IRVINE 01 1 43693U 18088D 22286.27054000 .00117870 00000-0 22061-2 0 9995 2 43693 85.0266 230.4628 0012335 56.9075 303.3363 15.48194035218377 QO-100 1 43700U 18090A 22286.60687231 .00000142 00000-0 00000 0 0 9991 2 43700 0.0180 180.1709 0002754 57.9314 28.3105 1.00273070 14451 Reaktor Hello World 1 43743U 18096AA 22286.50416342 .00022928 00000-0 63228-3 0 9997 2 43743 97.3447 6.0364 0013724 0.5123 359.6133 15.37019617216070 MinXSS-2 1 43758U 18099A 22286.44038796 .00004683 00000-0 40034-3 0 9990 2 43758 97.6113 351.4868 0014308 226.6242 133.3790 14.98031852210764 AO-95 1 43770U 18099N 22286.45795010 .00004592 00000-0 40334-3 0 9996 2 43770 97.6081 349.7061 0012675 235.2491 124.7538 14.97000385210663 RANGE-B 1 43772U 18099Q 22286.46460330 .00006289 00000-0 53937-3 0 9991 2 43772 97.6196 351.6809 0012471 219.3219 140.7099 14.97796171210697 RANGE-A 1 43773U 18099R 22286.41713265 .00002299 00000-0 20740-3 0 9998 2 43773 97.6008 348.3513 0012084 223.3869 136.6402 14.96446927210637 MOVE-II 1 43780U 18099Y 22286.43746406 .00007240 00000-0 60624-3 0 9997 2 43780 97.6114 351.1276 0012233 232.6094 127.4016 14.98676349210724 SNUSat 2 1 43782U 18099AA 22286.42638262 .00003276 00000-0 28836-3 0 9992 2 43782 97.6085 350.1695 0011323 221.4119 138.6246 14.97129775210689 SnugLite 1 43784U 18099AC 22286.44546491 .00004356 00000-0 37893-3 0 9991 2 43784 97.6038 349.8137 0013746 228.9725 131.0310 14.97392151210714 ITASat 1 1 43786U 18099AE 22286.44229792 .00003522 00000-0 30994-3 0 9994 2 43786 97.6103 350.6710 0013905 229.5057 130.4954 14.97066944210702 EAGLET 1 1 43790U 18099AJ 22286.46049130 .00003370 00000-0 29631-3 0 9994 2 43790 97.6098 351.2320 0011802 230.3892 129.6289 14.97153038210448 ESEO 1 43792U 18099AL 22286.44514925 .00001827 00000-0 16589-3 0 9996 2 43792 97.6048 350.2522 0012145 229.7943 130.2217 14.96430343210476 CSIM 1 43793U 18099AM 22286.42436818 .00006306 00000-0 51973-3 0 9992 2 43793 97.6156 352.1399 0010758 223.1287 136.9094 14.99349994210556 Astrocast 0.1 1 43798U 18099AS 22286.43368377 .00005482 00000-0 46348-3 0 9996 2 43798 97.6115 351.8716 0011316 209.1504 150.9088 14.98418728210776 JO-97 1 43803U 18099AX 22286.41684414 .00004111 00000-0 35518-3 0 9999 2 43803 97.6083 350.4423 0013134 227.5142 132.4971 14.97702618210723 Suomi 100 1 43804U 18099AY 22286.44340196 .00004222 00000-0 36590-3 0 9993 2 43804 97.6058 350.3641 0013938 228.3288 131.6742 14.97558693210739 Al Farabi 2 1 43805U 18099AZ 22286.78107226 .00007317 00000-0 61808-3 0 9994 2 43805 97.6093 351.3231 0013887 226.1143 133.8926 14.98312643210815 CHOMPTT 1 43855U 18104G 22286.16177871 .00013582 00000-0 47167-3 0 9994 2 43855 85.0343 332.5857 0015748 153.6335 206.5716 15.29513139212702 ISAT 1 43879U 18111D 22286.47206195 .00005600 00000-0 46992-3 0 9991 2 43879 97.6517 189.9213 0010618 283.4758 76.5281 14.98704703207342 UWE-4 1 43880U 18111E 22286.46419454 .00005084 00000-0 42589-3 0 9990 2 43880 97.6552 190.6888 0010669 284.8167 75.1873 14.98820343207379 Sparrow 1 43881U 18111F 22286.46826990 .00005476 00000-0 45598-3 0 9996 2 43881 97.6560 190.9676 0010721 280.5605 79.4410 14.99018373207384 Lume 1 1 43908U 18111AJ 22286.58667024 .00017563 00000-0 55483-3 0 9994 2 43908 97.1715 170.7194 0018076 18.9041 341.2869 15.32716275211477 FO-99 1 43937U 19003F 22286.39684634 .00020902 00000-0 63954-3 0 9995 2 43937 97.1204 315.3012 0021108 92.2274 268.1386 15.33636162208037 MYSat 1 1 44045U 18092F 22286.18269645 .00170674 00000-0 13803-2 0 9990 2 44045 51.6256 200.2056 0009894 171.1227 188.9947 15.69695570206254 AstroCast 0.2 1 44083U 19018F 22286.44351284 .00021030 00000-0 73218-3 0 9999 2 44083 97.3081 343.1590 0010338 71.9599 288.2767 15.29652603196509 AISTechSat 3 1 44103U 19018AB 22286.39957559 .00014843 00000-0 51819-3 0 9990 2 44103 97.2941 343.3686 0012998 79.4599 280.8105 15.29607070196660 AISat 1 1 44104U 19018AC 22286.26413237 .00014358 00000-0 37765-3 0 9992 2 44104 97.3899 9.9432 0051309 71.5522 289.1290 15.37308816197681 Prox-1 1 44339U 19036A 22286.33456045 .00006573 00000-0 14238-2 0 9993 2 44339 23.9993 168.9526 0010231 70.1734 289.9860 14.55778924175542 Oculus-ASR 1 44348U 19036K 22286.76829855 .00119496 -31663-5 85997-3 0 9998 2 44348 28.4978 88.0250 0187740 212.4204 146.4742 15.52022637182831 NO-104 1 44354U 19036R 22286.71288723 .00110836 -36507-5 73080-3 0 9994 2 44354 28.5235 70.6845 0176211 236.8246 121.5344 15.55745982182996 Move-IIb 1 44398U 19038N 22286.61037287 .00030978 00000-0 13653-2 0 9990 2 44398 97.6416 257.3145 0022779 79.8195 280.5573 15.21513967180982 SONATE 1 44400U 19038Q 22286.61044853 .00011274 00000-0 58994-3 0 9997 2 44400 97.6483 255.8049 0024978 84.8422 275.5634 15.15735950180824 BeeSat 9 1 44412U 19038AC 22286.66914169 .00015950 00000-0 76466-3 0 9990 2 44412 97.6498 257.0354 0021906 86.5069 273.8669 15.18779867180625 JAISAT-1 1 44419U 19038F 22286.42049010 .00015499 00000-0 73381-3 0 9996 2 44419 97.6500 257.7126 0020806 84.7120 275.6488 15.19240621180953 LightSail-2 1 44420U 19036AC 22286.59694534 .00357641 00000-0 24036-1 0 9990 2 44420 23.9969 66.9259 0010441 352.5955 7.4392 15.03856445174812 Taurus 1 1 44530U 19059C 22286.71266924 .00004952 00000-0 13555-2 0 9998 2 44530 98.5502 26.4097 0014608 122.0133 238.2480 14.47558991162959 Duchifat 3 1 44854U 19089C 22286.68388044 .00008359 00000-0 63228-3 0 9992 2 44854 36.9656 119.0614 0006364 94.0680 266.0791 15.01911135155717 OPS-SAT 1 44878U 19092F 22286.48903339 .00014984 00000-0 65480-3 0 9993 2 44878 97.4801 109.5950 0010948 291.5696 68.4373 15.22141728156131 TO-108 1 44881U 19093C 22286.75137094 .00001422 00000-0 18613-3 0 9994 2 44881 97.8859 4.2257 0015386 156.4860 203.7062 14.81867660152292 FloripaSat 1 1 44885U 19093G 22286.73259846 .00004638 00000-0 56811-3 0 9990 2 44885 97.8903 5.8247 0014797 161.8450 198.3291 14.83579982152384 RS-44 1 44909U 19096E 22286.32466658 .00000032 00000-0 78937-4 0 9994 2 44909 82.5212 151.9890 0218208 44.3125 317.5214 12.79715794130583 BY70-2 1 45857U 20042B 22286.77420052 .00016371 00000-0 20963-2 0 9994 2 45857 97.9485 2.5509 0011442 94.8051 265.4438 14.81343820122969 UPMSat 2 1 46276U 20061E 22286.45444369 .00006444 00000-0 31034-3 0 9995 2 46276 97.3802 354.5755 0002936 105.3853 254.7706 15.19082847116784 AmicalSat 1 46287U 20061R 22286.18683060 .00009549 00000-0 53122-3 0 9991 2 46287 97.4347 353.1223 0001737 191.3787 168.7405 15.13865589116275 SALSAT 1 46495U 20068K 22286.39789748 .00004821 00000-0 34292-3 0 9997 2 46495 97.7378 227.8160 0015116 234.6944 125.2869 15.05047391111925 BY70-3 1 46839U 20079N 22286.89069597 .00056364 00000-0 10796-2 0 9990 2 46839 97.1867 357.7556 0004452 248.7513 231.4647 15.47845338108524 CAPE 3 1 47309U 21002A 22286.37882597 .00019670 00000-0 72822-3 0 9994 2 47309 60.6822 280.3220 0039801 52.6057 307.8644 15.27010969 96447 AO-109 1 47311U 21002C 22286.33347450 .00017499 00000-0 64728-3 0 9990 2 47311 60.6837 277.9322 0035715 52.4334 307.9990 15.27256774 96459 MiTEE 1 1 47314U 21002F 22286.65707840 .00039787 00000-0 11616-2 0 9992 2 47314 60.6803 266.1576 0033173 46.4122 313.9715 15.34532002 96709 ExoCube 2 1 47319U 21002L 22286.30152700 .00016852 00000-0 63207-3 0 9990 2 47319 60.6827 279.3990 0037049 53.5003 306.9489 15.26777232 96391 UVSQ-SAT 1 47438U 21006AB 22286.40752760 .00010304 00000-0 52271-3 0 9994 2 47438 97.4235 343.0073 0010598 219.0358 141.0112 15.17071493 95157 YUSAT 1 1 47439U 21006AC 22286.13798369 .00012544 00000-0 62314-3 0 9997 2 47439 97.4241 342.9445 0010349 219.4531 140.5950 15.17759001 95126 SOMP 2b 1 47445U 21006AJ 22286.43369509 .00009974 00000-0 51218-3 0 9991 2 47445 97.4206 342.5934 0010179 223.6296 136.4134 15.16655553 95145 IDEASSat 1 47458U 21006AX 22286.42835354 .00009320 00000-0 48131-3 0 9995 2 47458 97.4298 343.1933 0009404 221.6851 138.3666 15.16481598 95136 CubeSX-Sirius-HSE 1 47951U 21022V 22286.81877032 .00009139 00000-0 58759-3 0 9998 2 47951 97.5155 183.8276 0022655 100.2220 332.8521 15.08414625 85836 CubeSX-HSE 1 47952U 21022W 22286.80428543 .00009965 00000-0 63924-3 0 9994 2 47952 97.5158 183.8404 0022528 100.1958 347.3444 15.08477049 85833 KSU-Cubesat 1 47954U 21022Y 22286.46630355 .00008530 00000-0 54350-3 0 9994 2 47954 97.5158 183.6654 0022029 100.2696 260.1017 15.08781925 85510 GRBAlpha 1 47959U 21022AD 22286.73340762 .00010206 00000-0 65403-3 0 9993 2 47959 97.5158 183.8200 0022255 100.4918 344.5865 15.08514102 84646 Orbicraft-Zorkiy 1 47960U 21022AE 22286.82789831 .00010120 00000-0 64485-3 0 9993 2 47960 97.5172 184.1028 0021959 98.5029 349.4349 15.08729619 85357 STECCO 1 47962U 21022AG 22286.86997615 .00015935 00000-0 94761-3 0 9999 2 47962 97.5149 185.1553 0017253 91.8776 332.5368 15.11215117 84747 DO-111 1 47963U 21022AH 22286.23813977 .00034140 00000-0 16995-2 0 9990 2 47963 97.5179 186.4166 0018636 86.1171 274.2193 15.17359989 84781 MO-110 1 47964U 21022AJ 22286.47445963 .00013258 00000-0 77963-3 0 9993 2 47964 97.5152 185.1056 0019982 90.6609 269.6911 15.11619536 84707 FEES 1 48082U 21022AL 22286.28089667 .00019717 00000-0 11231-2 0 9990 2 48082 97.5162 184.9750 0016342 87.7402 272.5699 15.12736952 84386 TUBIN 1 48900U 21059X 22286.85631649 .00008109 00000-0 43953-3 0 9995 2 48900 97.5696 55.3763 0011040 58.9792 43.4375 15.14801927 71833 IT-SPINS 1 49017U 21013G 22286.47416949 .00017002 00000-0 60808-3 0 9997 2 49017 51.5977 194.0288 0009022 140.4206 219.7434 15.28862889 71824 LEDSAT 1 49069U 21073D 22286.61025006 .00007081 00000-0 44148-3 0 9991 2 49069 97.5136 357.1563 0025291 248.3739 111.4796 15.09578269 63657 CUTE 1 49263U 21088D 22286.19609614 .00007775 00000-0 56408-3 0 9991 2 49263 97.5772 351.7558 0020009 27.9325 332.2971 15.04025122 57119 TeikyoSat 4 1 49396U 21102B 22286.43927622 .00002593 00000-0 20750-3 0 9998 2 49396 97.5317 340.7841 0015115 215.0635 144.9595 15.00964247 50748 Z-Sat 1 49399U 21102E 22286.75658232 .00002808 00000-0 21221-3 0 9997 2 49399 97.5250 342.2394 0023002 182.9863 177.1229 15.02966259 50857 KOSEN 1 1 49402U 21102H 22286.73267619 .00002917 00000-0 21375-3 0 9996 2 49402 97.5152 342.4224 0022155 174.4785 185.6690 15.04118593 50885 HO-113 1 50466U 21131B 22286.83477281 .00000433 00000-0 15619-3 0 9994 2 50466 98.5732 3.9904 0005352 147.3078 212.8442 14.38546964 41937 Tevel 1 50999U 22002R 22286.90251108 .00016311 00000-0 83641-3 0 9991 2 50999 97.4699 352.1055 0010907 15.7972 100.1312 15.16578290 41363 Grizu-263a 1 51025U 22002AT 22286.13152213 .00027137 00000-0 12601-2 0 9999 2 51025 97.4860 352.6324 0011899 20.0954 340.0747 15.19921175 41294 NO-116 1 51031U 22002AZ 22286.13281324 .00019351 00000-0 94819-3 0 9993 2 51031 97.4809 352.1619 0012575 21.0876 339.0874 15.18119201 41277 IRIS-A 1 51044U 22002BN 22286.45361703 .00007041 00000-0 38626-3 0 9999 2 51044 97.4701 351.1929 0009521 26.2092 333.9620 15.14430298 41268 DELFI-PQ 1 51074U 22002CU 22286.46102598 .00018188 00000-0 84773-3 0 9996 2 51074 97.4944 353.5569 0013648 48.3215 311.9185 15.19855280 41363 SO-115 1 51080U 22002DA 22285.13252021 .00017152 00000-0 83512-3 0 9993 2 51080 97.4960 352.0060 0013989 53.5440 306.7081 15.18350125 41144 SO-114 1 51081U 22002DB 22286.45087498 .00013779 00000-0 67100-3 0 9990 2 51081 97.4949 353.2823 0014264 49.2068 311.0401 15.18390345 41342 OreSat0 1 52017U 22026K 22286.46891566 .00010912 00000-0 55752-3 0 9992 2 52017 97.5082 284.9317 0025051 221.4883 138.4449 15.16580268 32069 Planetum 1 1 52738U 22057G 22286.28229416 .00011059 00000-0 62521-3 0 9990 2 52738 97.5226 39.1421 0008981 121.9592 238.2513 15.13222256 21245 Foresail-1 1 52766U 22057AL 22286.78099253 .00010684 00000-0 58539-3 0 9997 2 52766 97.5322 40.0853 0014779 104.2390 1.3154 15.14291719 21336 SNUGLITE 2 1 52899U 22065F 22286.71548274 .00001652 00000-0 36528-3 0 9997 2 52899 98.0350 74.0937 0006915 266.0530 93.9882 14.58481295 14936 CTIM 1 52950U 22074G 22286.40555012 .00024902 00000-0 96127-3 0 9993 2 52950 45.0087 277.5199 0003136 93.1392 266.9844 15.25904339 15733 GREENCUBE 1 53106U 22080B 22276.55284936 -.00000003 00000-0 00000 0 0 9991 2 53106 70.1655 48.8724 0008696 239.2659 120.7144 6.42557820 5260 AstroBioCubeSat 1 53107U 22080C 22278.47890267 -.00000003 00000-0 00000-0 0 9996 2 53107 70.1640 48.2592 0013789 232.6370 127.2964 6.42111103 5293 CELESTA 1 53111U 22080G 22255.16019017 -.00000003 00000-0 00000 0 0 9997 2 53111 70.1086 56.1818 0009300 227.1361 132.8517 6.42544045 3765 RS4S 1 53306U 98067TR 22286.76836288 .00091036 00000-0 11660-2 0 9990 2 53306 51.6383 107.1106 0004120 287.1649 72.8892 15.58412343 13089 RS3S 1 53308U 98067TT 22286.76976327 .00089503 00000-0 11541-2 0 9995 2 53308 51.6381 107.1173 0004187 283.8246 76.2280 15.58240811 13147 RS1S 1 53309U 98067TU 22286.76388428 .00093200 00000-0 11858-2 0 9995 2 53309 51.6374 107.0748 0004081 293.3645 66.6918 15.58578393 13093 RS5S 1 53310U 98067TV 22286.76919367 .00089983 00000-0 11584-2 0 9998 2 53310 51.6379 107.1141 0003777 292.7515 67.3078 15.58283373 13128 RS6S 1 53311U 98067TW 22286.75564461 .00093018 00000-0 11689-2 0 9999 2 53311 51.6373 107.0187 0004602 278.5570 81.4901 15.58905453 13147 RS9S 1 53312U 98067TX 22286.76202964 .00093291 00000-0 11877-2 0 9990 2 53312 51.6382 107.0649 0004018 297.3558 62.7026 15.58561653 13080 RS12S 1 53313U 98067TY 22286.75985620 .00089758 00000-0 11434-2 0 9999 2 53313 51.6382 107.0508 0003604 293.5571 66.5043 15.58564803 13135 JAGSAT 1 53771U 98067UJ 22286.22279533 .00110331 00000-0 15234-2 0 9992 2 53771 51.6387 110.9643 0003048 331.0104 29.0718 15.56313658 5731 /EX
